This demonstration page uses our WeatherBlox Daily Observations layout. Learn more.

Left ArrowRight Arrow

Hourly Observations for July 19, 2016

Temp ( °F °C ) Dew Point ( °F °C ) Humidity (%) Winds ( mph kmh ) Pressure ( in mb ) Visibility ( mi km ) Precip ( " mm )
12:11 am 00:11 Partly Cloudy with Nearby Thunderstorms 82 27.8 59 15 46 46 SSW 8 13 29.91 1013 10 16 0.00 0.00
12:26 am 00:26 Clear 82 27.8 58 14.4 44 44 SSW 5 7 29.91 1013 10 16 0.00 0.00
12:51 am 00:51 Clear 81 27.2 58 14.4 45 45 W 7 11 29.92 1013 10 16 0.00 0.00
1:51 am 01:51 Clear 79 26.1 58 14.4 49 49 WNW 5 7 29.92 1013 10 16 0.00 0.00
2:51 am 02:51 Clear 77 25 58 14.4 52 52 Calm 29.92 1013 10 16 0.00 0.00
3:51 am 03:51 Clear 78 25.6 58 14.4 50 50 ENE 8 13 29.92 1013 10 16 0.00 0.00
4:51 am 04:51 Clear 77 25 56 13.3 48 48 ESE 6 9 29.96 1015 10 16 0.00 0.00
5:51 am 05:51 Sunny 79 26.1 56 13.3 45 45 ESE 7 11 29.97 1015 10 16 0.00 0.00
6:51 am 06:51 Sunny 79 26.1 57 13.9 47 47 E 6 9 29.98 1015 10 16 0.00 0.00
7:51 am 07:51 Sunny 83 28.3 57 13.9 41 41 NNE 6 9 29.97 1015 10 16 0.00 0.00
8:51 am 08:51 Sunny 83 28.3 59 15 44 44 S 3 6 29.99 1016 10 16 0.00 0.00
9:51 am 09:51 Sunny 86 30 58 14.4 39 39 SW 6 9 29.98 1015 10 16 0.00 0.00
10:51 am 10:51 Sunny 90 32.2 57 13.9 33 33 Calm 29.96 1014 10 16 0.00 0.00
11:51 am 11:51 Sunny 93 33.9 54 12.2 27 27 VRB 5 7 29.93 1013 10 16 0.00 0.00
12:51 pm 12:51 Sunny 97 36.1 53 11.7 23 23 undefined N/A 29.89 1012 10 16 0.00 0.00
1:51 pm 13:51 Sunny 98 36.7 52 11.1 21 21 SSW 9 15 29.85 1011 10 16 0.00 0.00
2:51 pm 14:51 Sunny 101 38.3 48 8.9 17 17 VRB 6 9 29.81 1010 10 16 0.00 0.00
3:51 pm 15:51 Sunny 100 37.8 47 8.3 16 16 undefined N/A 29.79 1009 10 16 0.00 0.00
4:51 pm 16:51 Sunny 101 38.3 44 6.7 14 14 S 5 7 29.78 1008 10 16 0.00 0.00
5:51 pm 17:51 Sunny 101 38.3 46 7.8 15 15 SW 6 9 29.77 1008 10 16 0.00 0.00
6:51 pm 18:51 Sunny 93 33.9 56 13.3 29 29 WNW 24 39 29.80 1009 10 16 0.00 0.00
7:34 pm 19:34 Mostly Cloudy with Nearby Thunderstorms 89 31.7 57 13.9 34 34 NW 23 37 29.74 1007 10 16 0.00 0.00
7:51 pm 19:51 Partly Cloudy 88 31.1 57 13.9 35 35 NW 23 37 29.84 1011 10 16 0.00 0.00
7:59 pm 19:59 Mostly Clear with Nearby Thunderstorms 88 31.1 57 13.9 35 35 NW 17 28 29.77 1008 10 16 0.00 0.00
8:20 pm 20:20 Mostly Cloudy with Thunderstorms 86 30 58 14.4 39 39 SSE 30 48 29.88 1012 10 16 0.00 0.00
8:47 pm 20:47 Mostly Clear with Strong Thunderstorms 68 20 64 18 88 88 ENE 25 41 30.06 1018 1 1 0.15 3.81
8:51 pm 20:51 Mostly Clear with Strong Thunderstorms 68 20 63 17.2 84 84 ENE 25 41 30.03 1017 1 1 0.34 8.64
9:05 pm 21:05 Mostly Clear with Strong Thunderstorms 69 20.6 63 17.2 81 81 E 24 39 30.03 1017 2 2 0.33 8.38
9:13 pm 21:13 Cloudy with Strong Thunderstorms 68 20 64 17.8 87 87 SE 20 31 30.09 1019 3 5 0.39 9.91
9:22 pm 21:22 Cloudy with Thunderstorms 68 20 65 18.3 90 90 SW 16 26 30.09 1019 5 8 0.44 11.18
9:51 pm 21:51 Mostly Clear with Thunderstorms N/A N/A N/A undefined N/A N/A N/A 0.44 11.18
10:00 pm 22:00 Mostly Clear with Nearby Thunderstorms N/A N/A N/A undefined N/A N/A N/A 0.00 0.00
10:20 pm 22:20 undefined N/A N/A N/A undefined N/A N/A N/A 0.00 0.00
10:35 pm 22:35 Mostly Clear with Nearby Thunderstorms N/A N/A N/A undefined N/A N/A N/A 0.00 0.00
10:51 pm 22:51 Mostly Clear with Nearby Thunderstorms N/A N/A N/A undefined N/A N/A N/A 0.00 0.00
11:04 pm 23:04 undefined N/A N/A N/A undefined N/A N/A N/A 0.00 0.00
11:51 pm 23:51 undefined N/A N/A N/A undefined N/A N/A N/A 0.00 0.00

Powered by AerisWeather